Tracking 19146 objects as of 24-Apr-2018
HD Live streaming from Space Station
objects crossing your sky now

DELTA 1 R/B

Track DELTA 1 R/B now!
10-day predictions


NORAD ID: 2661
Int'l Code: 1967-006B
Perigee: 1,347.1 km
Apogee: 1,447.9 km
Inclination: 101.9 °
Period: 113.6 minutes
Semi major axis: 7768 km
RCS: 0.6811 m2 (medium)
Launch date: January 26, 1967
Source: United States (US)
Launch site: AIR FORCE WESTERN TEST RANGE (AFWTR)

Note: This is a ROCKET BODY
aabbcc
Your satellite tracking list
Your tracking list is empty




NASA's NSSDC Master Catalog

Two Line Element Set (TLE):
1 02661U 67006B   18113.43548409 -.00000033  00000-0  76278-4 0  9996
2 02661 101.9112  36.7572 0064917 126.1401 342.5403 12.67932475371316
Source of the keplerian elements: AFSPC